Time,TemperatureF,DewpointF,PressureIn,WindDirection,WindDirectionDegrees,WindSpeedMPH,WindSpeedGustMPH,Humidity,HourlyPrecipIn,Conditions,Clouds,dailyrainin,SoftwareType,DateUTC
2013-04-25 00:04:00,60.8,26.4,29.75,SE,131,2.0,5.0,27,0.00,,,0.00,WUHU216DAVISVP2,2013-04-25 07:04:00,
2013-04-25 00:09:00,60.6,26.2,29.75,SE,131,2.0,5.0,27,0.00,,,0.00,WUHU216DAVISVP2,2013-04-25 07:09:00,
2013-04-25 00:14:00,60.6,27.1,29.75,SE,131,2.0,4.0,28,0.00,,,0.00,WUHU216DAVISVP2,2013-04-25 07:14:00,
2013-04-25 00:19:00,60.5,27.0,29.75,SE,131,2.0,4.0,28,0.00,,,0.00,WUHU216DAVISVP2,2013-04-25 07:19:00,
2013-04-25 00:24:00,60.9,26.5,29.76,SE,131,3.0,4.0,27,0.00,,,0.00,WUHU216DAVISVP2,2013-04-25 07:24:00,
2013-04-25 00:30:00,61.3,29.4,29.76,SE,132,4.0,6.0,30,0.00,,,0.00,WUHU216DAVISVP2,2013-04-25 07:30:00,
2013-04-25 00:35:00,62.4,31.1,29.76,SE,141,6.0,8.0,31,0.00,,,0.00,WUHU216DAVISVP2,2013-04-25 07:35:00,
2013-04-25 00:40:00,63.1,32.7,29.76,SSE,147,5.0,9.0,32,0.00,,,0.00,WUHU216DAVISVP2,2013-04-25 07:40:00,
2013-04-25 00:45:00,62.2,34.2,29.76,SSE,165,8.0,12.0,35,0.00,,,0.00,WUHU216DAVISVP2,2013-04-25 07:45:00,
2013-04-25 00:50:00,61.1,35.3,29.76,SSE,160,6.0,12.0,38,0.00,,,0.00,WUHU216DAVISVP2,2013-04-25 07:50:00,
2013-04-25 00:55:00,60.1,35.5,29.76,SSE,152,5.0,13.0,40,0.00,,,0.00,WUHU216DAVISVP2,2013-04-25 07:55:00,
2013-04-25 01:00:00,59.6,36.3,29.76,SSE,153,4.0,13.0,42,0.00,,,0.00,WUHU216DAVISVP2,2013-04-25 08:00:00,
2013-04-25 01:05:00,59.1,35.9,29.76,SSE,153,3.0,13.0,42,0.00,,,0.00,WUHU216DAVISVP2,2013-04-25 08:05:00,
2013-04-25 01:10:00,58.7,36.7,29.76,SSE,153,2.0,13.0,44,0.00,,,0.00,WUHU216DAVISVP2,2013-04-25 08:10:00,
2013-04-25 01:15:00,58.3,37.0,29.76,SSE,153,5.0,7.0,45,0.00,,,0.00,WUHU216DAVISVP2,2013-04-25 08:15:00,
2013-04-25 01:21:00,57.8,37.1,29.76,SSE,153,4.0,6.0,46,0.00,,,0.00,WUHU216DAVISVP2,2013-04-25 08:21:00,
2013-04-25 01:26:00,57.5,37.9,29.76,SSE,153,0.0,6.0,48,0.00,,,0.00,WUHU216DAVISVP2,2013-04-25 08:26:00,
2013-04-25 01:31:00,57.2,37.1,29.76,SSE,153,4.0,6.0,47,0.00,,,0.00,WUHU216DAVISVP2,2013-04-25 08:31:00,
2013-04-25 01:36:00,56.8,36.7,29.76,SSE,153,3.0,6.0,47,0.00,,,0.00,WUHU216DAVISVP2,2013-04-25 08:36:00,
2013-04-25 01:41:00,56.4,37.4,29.76,SSE,153,0.0,6.0,49,0.00,,,0.00,WUHU216DAVISVP2,2013-04-25 08:41:00,
2013-04-25 01:46:00,56.1,37.2,29.76,SSE,153,0.0,6.0,49,0.00,,,0.00,WUHU216DAVISVP2,2013-04-25 08:46:00,
2013-04-25 01:51:00,55.9,37.0,29.76,SSE,153,2.0,5.0,49,0.00,,,0.00,WUHU216DAVISVP2,2013-04-25 08:51:00,
2013-04-25 01:56:00,55.6,37.8,29.76,SSE,153,3.0,5.0,51,0.00,,,0.00,WUHU216DAVISVP2,2013-04-25 08:56:00,
2013-04-25 02:01:00,55.2,39.4,29.76,SSE,153,3.0,5.0,55,0.00,,,0.00,WUHU216DAVISVP2,2013-04-25 09:01:00,
2013-04-25 02:06:00,54.7,34.8,29.76,SSE,153,4.0,5.0,47,0.00,,,0.00,WUHU216DAVISVP2,2013-04-25 09:06:00,
2013-04-25 02:11:00,53.1,34.4,29.76,SSE,153,3.0,5.0,49,0.00,,,0.00,WUHU216DAVISVP2,2013-04-25 09:11:00,
2013-04-25 02:16:00,52.5,34.4,29.76,SSE,153,5.0,5.0,50,0.00,,,0.00,WUHU216DAVISVP2,2013-04-25 09:16:00,
2013-04-25 02:21:00,51.5,31.3,29.75,SSE,153,5.0,5.0,46,0.00,,,0.00,WUHU216DAVISVP2,2013-04-25 09:21:00,
2013-04-25 02:27:00,50.5,30.9,29.75,SSE,153,5.0,6.0,47,0.00,,,0.00,WUHU216DAVISVP2,2013-04-25 09:27:00,
2013-04-25 02:32:00,50.0,31.5,29.75,SSE,153,6.0,6.0,49,0.00,,,0.00,WUHU216DAVISVP2,2013-04-25 09:32:00,
2013-04-25 02:37:00,50.0,31.5,29.75,SSE,153,5.0,7.0,49,0.00,,,0.00,WUHU216DAVISVP2,2013-04-25 09:37:00,
2013-04-25 02:42:00,49.9,30.4,29.75,SSE,153,4.0,7.0,47,0.00,,,0.00,WUHU216DAVISVP2,2013-04-25 09:42:00,
2013-04-25 02:47:00,49.6,29.6,29.75,SSE,153,4.0,7.0,46,0.00,,,0.00,WUHU216DAVISVP2,2013-04-25 09:47:00,
2013-04-25 02:52:00,49.3,29.4,29.75,SSE,153,4.0,7.0,46,0.00,,,0.00,WUHU216DAVISVP2,2013-04-25 09:52:00,
2013-04-25 02:57:00,49.2,29.3,29.75,SSE,153,0.0,6.0,46,0.00,,,0.00,WUHU216DAVISVP2,2013-04-25 09:57:00,
2013-04-25 03:02:00,48.9,29.5,29.75,SSE,153,0.0,6.0,47,0.00,,,0.00,WUHU216DAVISVP2,2013-04-25 10:02:00,
2013-04-25 03:07:00,48.4,30.1,29.75,SSE,153,2.0,5.0,49,0.00,,,0.00,WUHU216DAVISVP2,2013-04-25 10:07:00,
2013-04-25 03:12:00,48.1,28.7,29.75,SSE,153,5.0,5.0,47,0.00,,,0.00,WUHU216DAVISVP2,2013-04-25 10:12:00,
2013-04-25 03:17:00,47.9,30.1,29.75,NNE,26,6.0,7.0,50,0.00,,,0.00,WUHU216DAVISVP2,2013-04-25 10:17:00,
2013-04-25 03:22:00,47.8,29.5,29.75,NNE,26,5.0,7.0,49,0.00,,,0.00,WUHU216DAVISVP2,2013-04-25 10:22:00,
2013-04-25 03:28:00,47.0,28.3,29.75,NNE,25,4.0,7.0,48,0.00,,,0.00,WUHU216DAVISVP2,2013-04-25 10:28:00,
2013-04-25 03:33:00,46.7,28.0,29.75,North,360,7.0,7.0,48,0.00,,,0.00,WUHU216DAVISVP2,2013-04-25 10:33:00,
2013-04-25 03:38:00,46.8,28.6,29.75,North,355,3.0,8.0,49,0.00,,,0.00,WUHU216DAVISVP2,2013-04-25 10:38:00,
2013-04-25 03:43:00,46.8,29.1,29.75,North,355,4.0,8.0,50,0.00,,,0.00,WUHU216DAVISVP2,2013-04-25 10:43:00,
2013-04-25 03:48:00,47.2,30.5,29.75,North,355,4.0,8.0,52,0.00,,,0.00,WUHU216DAVISVP2,2013-04-25 10:48:00,
2013-04-25 03:53:00,47.3,29.6,29.75,North,355,0.0,8.0,50,0.00,,,0.00,WUHU216DAVISVP2,2013-04-25 10:53:00,
2013-04-25 03:58:00,46.5,29.3,29.75,North,355,2.0,5.0,51,0.00,,,0.00,WUHU216DAVISVP2,2013-04-25 10:58:00,
2013-04-25 04:03:00,46.2,29.5,29.75,North,355,1.0,5.0,52,0.00,,,0.00,WUHU216DAVISVP2,2013-04-25 11:03:00,
2013-04-25 04:08:00,46.3,30.6,29.75,North,355,1.0,3.0,54,0.00,,,0.00,WUHU216DAVISVP2,2013-04-25 11:08:00,
2013-04-25 04:13:00,46.5,30.3,29.75,North,355,0.0,3.0,53,0.00,,,0.00,WUHU216DAVISVP2,2013-04-25 11:13:00,
2013-04-25 04:18:00,46.3,29.1,29.75,North,355,2.0,3.0,51,0.00,,,0.00,WUHU216DAVISVP2,2013-04-25 11:18:00,
2013-04-25 04:23:00,45.8,30.6,29.76,North,355,2.0,3.0,55,0.00,,,0.00,WUHU216DAVISVP2,2013-04-25 11:23:00,
2013-04-25 04:29:00,46.0,31.2,29.76,North,355,2.0,3.0,56,0.00,,,0.00,WUHU216DAVISVP2,2013-04-25 11:29:00,
2013-04-25 04:34:00,46.2,31.4,29.76,North,355,4.0,5.0,56,0.00,,,0.00,WUHU216DAVISVP2,2013-04-25 11:34:00,
2013-04-25 04:39:00,45.9,30.2,29.76,North,355,4.0,5.0,54,0.00,,,0.00,WUHU216DAVISVP2,2013-04-25 11:39:00,
2013-04-25 04:44:00,45.4,30.2,29.76,North,355,3.0,5.0,55,0.00,,,0.00,WUHU216DAVISVP2,2013-04-25 11:44:00,
2013-04-25 04:49:00,45.6,30.8,29.76,North,355,4.0,5.0,56,0.00,,,0.00,WUHU216DAVISVP2,2013-04-25 11:49:00,
2013-04-25 04:54:00,45.3,30.1,29.77,North,355,0.0,5.0,55,0.00,,,0.00,WUHU216DAVISVP2,2013-04-25 11:54:00,
2013-04-25 04:59:00,44.9,30.6,29.77,North,355,2.0,5.0,57,0.00,,,0.00,WUHU216DAVISVP2,2013-04-25 11:59:00,
2013-04-25 05:04:00,45.1,31.3,29.77,North,355,2.0,4.0,58,0.00,,,0.00,WUHU216DAVISVP2,2013-04-25 12:04:00,
2013-04-25 05:09:00,45.4,31.5,29.77,North,355,0.0,4.0,58,0.00,,,0.00,WUHU216DAVISVP2,2013-04-25 12:09:00,
2013-04-25 05:14:00,45.8,32.4,29.77,North,355,0.0,4.0,59,0.00,,,0.00,WUHU216DAVISVP2,2013-04-25 12:14:00,
2013-04-25 05:19:00,45.7,30.9,29.77,North,355,0.0,3.0,56,0.00,,,0.00,WUHU216DAVISVP2,2013-04-25 12:19:00,
2013-04-25 05:24:00,45.4,31.5,29.77,North,355,3.0,3.0,58,0.00,,,0.00,WUHU216DAVISVP2,2013-04-25 12:24:00,
2013-04-25 05:30:00,45.0,31.2,29.77,North,355,2.0,4.0,58,0.00,,,0.00,WUHU216DAVISVP2,2013-04-25 12:30:00,
2013-04-25 05:35:00,45.0,32.0,29.77,North,355,4.0,5.0,60,0.00,,,0.00,WUHU216DAVISVP2,2013-04-25 12:35:00,
2013-04-25 05:40:00,44.9,31.5,29.78,North,355,3.0,5.0,59,0.00,,,0.00,WUHU216DAVISVP2,2013-04-25 12:40:00,
2013-04-25 05:45:00,44.7,31.3,29.78,North,355,0.0,5.0,59,0.00,,,0.00,WUHU216DAVISVP2,2013-04-25 12:45:00,
2013-04-25 05:50:00,44.0,29.7,29.78,North,355,3.0,5.0,57,0.00,,,0.00,WUHU216DAVISVP2,2013-04-25 12:50:00,
2013-04-25 05:55:00,43.4,30.0,29.78,North,355,4.0,5.0,59,0.00,,,0.00,WUHU216DAVISVP2,2013-04-25 12:55:00,
2013-04-25 06:00:00,43.3,30.7,29.79,North,355,5.0,5.0,61,0.00,,,0.00,WUHU216DAVISVP2,2013-04-25 13:00:00,
2013-04-25 06:05:00,43.8,32.5,29.79,North,355,4.0,5.0,64,0.00,,,0.00,WUHU216DAVISVP2,2013-04-25 13:05:00,
2013-04-25 06:10:00,45.0,34.4,29.79,North,355,3.0,6.0,66,0.00,,,0.00,WUHU216DAVISVP2,2013-04-25 13:10:00,
2013-04-25 06:15:00,45.8,34.0,29.80,North,355,3.0,6.0,63,0.00,,,0.00,WUHU216DAVISVP2,2013-04-25 13:15:00,
2013-04-25 06:20:00,45.4,32.0,29.80,North,355,0.0,6.0,59,0.00,,,0.00,WUHU216DAVISVP2,2013-04-25 13:20:00,
2013-04-25 06:26:00,44.6,31.1,29.80,North,355,1.0,6.0,59,0.00,,,0.00,WUHU216DAVISVP2,2013-04-25 13:26:00,
2013-04-25 06:31:00,44.1,31.5,29.81,North,355,0.0,5.0,61,0.00,,,0.00,WUHU216DAVISVP2,2013-04-25 13:31:00,
2013-04-25 06:36:00,44.0,31.4,29.81,North,355,1.0,3.0,61,0.00,,,0.00,WUHU216DAVISVP2,2013-04-25 13:36:00,
2013-04-25 06:41:00,44.2,32.5,29.81,North,355,3.0,4.0,63,0.00,,,0.00,WUHU216DAVISVP2,2013-04-25 13:41:00,
2013-04-25 06:46:00,44.3,32.2,29.81,North,355,1.0,4.0,62,0.00,,,0.00,WUHU216DAVISVP2,2013-04-25 13:46:00,
2013-04-25 06:51:00,44.4,32.7,29.82,North,355,4.0,4.0,63,0.00,,,0.00,WUHU216DAVISVP2,2013-04-25 13:51:00,
2013-04-25 06:56:00,44.9,32.8,29.82,North,355,1.0,4.0,62,0.00,,,0.00,WUHU216DAVISVP2,2013-04-25 13:56:00,
2013-04-25 07:01:00,45.4,33.6,29.82,North,355,2.0,4.0,63,0.00,,,0.00,WUHU216DAVISVP2,2013-04-25 14:01:00,
2013-04-25 07:06:00,46.4,34.9,29.82,North,355,0.0,4.0,64,0.00,,,0.00,WUHU216DAVISVP2,2013-04-25 14:06:00,
2013-04-25 07:12:00,47.3,34.9,29.83,North,355,0.0,4.0,62,0.00,,,0.00,WUHU216DAVISVP2,2013-04-25 14:12:00,
2013-04-25 07:17:00,48.2,35.0,29.83,North,355,0.0,3.0,60,0.00,,,0.00,WUHU216DAVISVP2,2013-04-25 14:17:00,
2013-04-25 07:22:00,48.8,34.7,29.83,North,355,0.0,3.0,58,0.00,,,0.00,WUHU216DAVISVP2,2013-04-25 14:22:00,
2013-04-25 07:27:00,49.6,36.4,29.83,North,355,0.0,0.0,60,0.00,,,0.00,WUHU216DAVISVP2,2013-04-25 14:27:00,
2013-04-25 07:32:00,50.7,37.8,29.83,North,355,0.0,0.0,61,0.00,,,0.00,WUHU216DAVISVP2,2013-04-25 14:32:00,
2013-04-25 07:37:00,51.9,39.0,29.83,North,355,0.0,0.0,61,0.00,,,0.00,WUHU216DAVISVP2,2013-04-25 14:37:00,
2013-04-25 07:42:00,52.6,39.6,29.83,North,355,0.0,0.0,61,0.00,,,0.00,WUHU216DAVISVP2,2013-04-25 14:42:00,
2013-04-25 07:47:00,53.1,40.1,29.84,North,355,0.0,1.0,61,0.00,,,0.00,WUHU216DAVISVP2,2013-04-25 14:47:00,
2013-04-25 07:52:00,53.6,40.0,29.84,North,355,3.0,3.0,60,0.00,,,0.00,WUHU216DAVISVP2,2013-04-25 14:52:00,
2013-04-25 07:57:00,53.9,40.3,29.84,SSE,151,4.0,7.0,60,0.00,,,0.00,WUHU216DAVISVP2,2013-04-25 14:57:00,
2013-04-25 08:02:00,53.6,40.5,29.84,SSE,159,4.0,7.0,61,0.00,,,0.00,WUHU216DAVISVP2,2013-04-25 15:02:00,
2013-04-25 08:08:00,53.5,40.4,29.84,SSE,159,4.0,7.0,61,0.00,,,0.00,WUHU216DAVISVP2,2013-04-25 15:08:00,
2013-04-25 08:13:00,53.7,40.6,29.84,South,169,4.0,7.0,61,0.00,,,0.00,WUHU216DAVISVP2,2013-04-25 15:13:00,
2013-04-25 08:18:00,54.0,40.8,29.84,South,169,5.0,7.0,61,0.00,,,0.00,WUHU216DAVISVP2,2013-04-25 15:18:00,
2013-04-25 08:23:00,54.3,41.2,29.85,South,169,4.0,7.0,61,0.00,,,0.00,WUHU216DAVISVP2,2013-04-25 15:23:00,
2013-04-25 08:28:00,54.9,41.4,29.85,South,169,2.0,6.0,60,0.00,,,0.00,WUHU216DAVISVP2,2013-04-25 15:28:00,
2013-04-25 08:33:00,55.2,41.2,29.85,South,169,4.0,6.0,59,0.00,,,0.00,WUHU216DAVISVP2,2013-04-25 15:33:00,
2013-04-25 08:38:00,55.7,41.2,29.85,SSE,166,2.0,6.0,58,0.00,,,0.00,WUHU216DAVISVP2,2013-04-25 15:38:00,
2013-04-25 08:44:00,55.9,41.4,29.85,South,169,5.0,7.0,58,0.00,,,0.00,WUHU216DAVISVP2,2013-04-25 15:44:00,
2013-04-25 08:49:00,56.1,41.2,29.85,South,180,6.0,8.0,57,0.00,,,0.00,WUHU216DAVISVP2,2013-04-25 15:49:00,
2013-04-25 08:54:00,56.3,41.3,29.85,South,171,6.0,8.0,57,0.00,,,0.00,WUHU216DAVISVP2,2013-04-25 15:54:00,
2013-04-25 08:59:00,56.6,41.2,29.86,SSE,165,7.0,8.0,56,0.00,,,0.00,WUHU216DAVISVP2,2013-04-25 15:59:00,
2013-04-25 09:04:00,56.9,41.4,29.86,South,191,8.0,9.0,56,0.00,,,0.00,WUHU216DAVISVP2,2013-04-25 16:04:00,
2013-04-25 09:09:00,57.2,41.2,29.86,South,176,5.0,9.0,55,0.00,,,0.00,WUHU216DAVISVP2,2013-04-25 16:09:00,
2013-04-25 09:14:00,57.3,41.3,29.86,South,173,7.0,9.0,55,0.00,,,0.00,WUHU216DAVISVP2,2013-04-25 16:14:00,
2013-04-25 09:19:00,57.1,41.2,29.86,South,169,5.0,9.0,55,0.00,,,0.00,WUHU216DAVISVP2,2013-04-25 16:19:00,
2013-04-25 09:24:00,57.3,41.3,29.86,SSW,193,5.0,8.0,55,0.00,,,0.00,WUHU216DAVISVP2,2013-04-25 16:24:00,
2013-04-25 09:29:00,57.9,41.4,29.87,South,180,0.0,8.0,54,0.00,,,0.00,WUHU216DAVISVP2,2013-04-25 16:29:00,
2013-04-25 09:34:00,58.2,41.7,29.87,South,175,2.0,8.0,54,0.00,,,0.00,WUHU216DAVISVP2,2013-04-25 16:34:00,
2013-04-25 09:39:00,58.9,41.8,29.87,South,171,5.0,8.0,53,0.00,,,0.00,WUHU216DAVISVP2,2013-04-25 16:39:00,
2013-04-25 09:45:00,59.6,41.5,29.87,SSE,167,1.0,7.0,51,0.00,,,0.00,WUHU216DAVISVP2,2013-04-25 16:45:00,
2013-04-25 09:50:00,60.0,41.8,29.87,South,169,3.0,7.0,51,0.00,,,0.00,WUHU216DAVISVP2,2013-04-25 16:50:00,
2013-04-25 09:55:00,60.5,41.8,29.87,SSE,155,3.0,9.0,50,0.00,,,0.00,WUHU216DAVISVP2,2013-04-25 16:55:00,
2013-04-25 10:00:00,60.7,41.4,29.87,SSE,159,5.0,9.0,49,0.00,,,0.00,WUHU216DAVISVP2,2013-04-25 17:00:00,
2013-04-25 10:05:00,61.3,41.4,29.88,SSE,161,7.0,9.0,48,0.00,,,0.00,WUHU216DAVISVP2,2013-04-25 17:05:00,
2013-04-25 10:10:00,61.2,41.3,29.88,SSE,160,4.0,9.0,48,0.00,,,0.00,WUHU216DAVISVP2,2013-04-25 17:10:00,
2013-04-25 10:15:00,61.4,41.5,29.88,SSE,163,5.0,11.0,48,0.00,,,0.00,WUHU216DAVISVP2,2013-04-25 17:15:00,
2013-04-25 10:20:00,62.3,41.8,29.88,SSE,167,4.0,11.0,47,0.00,,,0.00,WUHU216DAVISVP2,2013-04-25 17:20:00,
2013-04-25 10:25:00,62.9,41.2,29.88,South,178,7.0,11.0,45,0.00,,,0.00,WUHU216DAVISVP2,2013-04-25 17:25:00,
2013-04-25 10:30:00,63.1,40.7,29.88,South,186,6.0,10.0,44,0.00,,,0.00,WUHU216DAVISVP2,2013-04-25 17:30:00,
2013-04-25 10:35:00,63.3,41.5,29.88,South,169,6.0,10.0,45,0.00,,,0.00,WUHU216DAVISVP2,2013-04-25 17:35:00,
2013-04-25 10:41:00,64.0,41.0,29.88,SSE,163,2.0,10.0,43,0.00,,,0.00,WUHU216DAVISVP2,2013-04-25 17:41:00,
2013-04-25 10:47:00,64.9,41.1,29.88,South,175,5.0,10.0,42,0.00,,,0.00,WUHU216DAVISVP2,2013-04-25 17:47:00,
2013-04-25 10:52:00,65.2,40.8,29.88,South,172,4.0,10.0,41,0.00,,,0.00,WUHU216DAVISVP2,2013-04-25 17:52:00,
2013-04-25 10:57:00,65.6,40.6,29.88,South,182,3.0,10.0,40,0.00,,,0.00,WUHU216DAVISVP2,2013-04-25 17:57:00,
2013-04-25 11:12:00,67.5,40.8,29.87,SSE,150,3.0,10.0,38,0.00,,,0.00,WUHU216DAVISVP2,2013-04-25 18:12:00,
2013-04-25 11:22:00,68.8,40.6,29.87,ESE,109,4.0,11.0,36,0.00,,,0.00,WUHU216DAVISVP2,2013-04-25 18:22:00,
2013-04-25 11:32:00,69.6,40.0,29.87,SSE,155,0.0,11.0,34,0.00,,,0.00,WUHU216DAVISVP2,2013-04-25 18:32:00,
2013-04-25 11:42:00,69.7,39.9,29.87,SSE,153,3.0,10.0,34,0.00,,,0.00,WUHU216DAVISVP2,2013-04-25 18:42:00,
2013-04-25 11:55:00,70.9,39.4,29.86,South,178,9.0,11.0,32,0.00,,,0.00,WUHU216DAVISVP2,2013-04-25 18:55:00,
2013-04-25 12:01:00,71.4,39.0,29.86,SSE,168,7.0,11.0,31,0.00,,,0.00,WUHU216DAVISVP2,2013-04-25 19:01:00,
2013-04-25 12:06:00,71.9,39.4,29.86,ESE,117,1.0,11.0,31,0.00,,,0.00,WUHU216DAVISVP2,2013-04-25 19:06:00,
2013-04-25 12:11:00,72.6,39.4,29.86,South,178,12.0,12.0,30,0.00,,,0.00,WUHU216DAVISVP2,2013-04-25 19:11:00,
2013-04-25 12:16:00,72.7,38.6,29.86,South,175,8.0,13.0,29,0.00,,,0.00,WUHU216DAVISVP2,2013-04-25 19:16:00,
2013-04-25 12:21:00,73.1,36.0,29.86,South,182,4.0,13.0,26,0.00,,,0.00,WUHU216DAVISVP2,2013-04-25 19:21:00,
2013-04-25 12:26:00,73.7,34.6,29.86,South,178,9.0,13.0,24,0.00,,,0.00,WUHU216DAVISVP2,2013-04-25 19:26:00,
2013-04-25 12:31:00,73.8,33.6,29.85,South,171,7.0,12.0,23,0.00,,,0.00,WUHU216DAVISVP2,2013-04-25 19:31:00,
2013-04-25 12:36:00,74.8,32.2,29.85,South,178,5.0,12.0,21,0.00,,,0.00,WUHU216DAVISVP2,2013-04-25 19:36:00,
2013-04-25 12:42:00,75.4,22.8,29.85,SE,136,6.0,12.0,14,0.00,,,0.00,WUHU216DAVISVP2,2013-04-25 19:42:00,
2013-04-25 12:47:00,75.3,24.4,29.85,SE,143,8.0,12.0,15,0.00,,,0.00,WUHU216DAVISVP2,2013-04-25 19:47:00,
2013-04-25 12:52:00,76.3,21.7,29.85,South,171,5.0,11.0,13,0.00,,,0.00,WUHU216DAVISVP2,2013-04-25 19:52:00,
2013-04-25 12:57:00,76.6,23.7,29.84,ESE,105,7.0,12.0,14,0.00,,,0.00,WUHU216DAVISVP2,2013-04-25 19:57:00,
2013-04-25 13:02:00,76.8,20.1,29.84,SSE,157,5.0,12.0,12,0.00,,,0.00,WUHU216DAVISVP2,2013-04-25 20:02:00,
2013-04-25 13:07:00,77.4,18.7,29.84,SSE,167,9.0,13.0,11,0.00,,,0.00,WUHU216DAVISVP2,2013-04-25 20:07:00,
2013-04-25 13:12:00,77.4,14.1,29.84,SSE,162,5.0,15.0,9,0.00,,,0.00,WUHU216DAVISVP2,2013-04-25 20:12:00,
2013-04-25 13:17:00,77.8,21.1,29.84,SSE,147,11.0,15.0,12,0.00,,,0.00,WUHU216DAVISVP2,2013-04-25 20:17:00,
2013-04-25 13:22:00,78.7,17.5,29.84,ENE,78,10.0,15.0,10,0.00,,,0.00,WUHU216DAVISVP2,2013-04-25 20:22:00,
2013-04-25 13:27:00,77.9,14.2,29.84,SSE,158,4.0,15.0,9,0.00,,,0.00,WUHU216DAVISVP2,2013-04-25 20:27:00,
2013-04-25 13:32:00,78.4,19.3,29.83,East,98,8.0,14.0,11,0.00,,,0.00,WUHU216DAVISVP2,2013-04-25 20:32:00,
2013-04-25 13:37:00,78.2,21.2,29.83,ESE,105,4.0,13.0,12,0.00,,,0.00,WUHU216DAVISVP2,2013-04-25 20:37:00,
2013-04-25 13:42:00,78.7,17.2,29.83,SE,131,7.0,15.0,10,0.00,,,0.00,WUHU216DAVISVP2,2013-04-25 20:42:00,
2013-04-25 13:47:00,78.5,19.4,29.83,South,182,10.0,15.0,11,0.00,,,0.00,WUHU216DAVISVP2,2013-04-25 20:47:00,
2013-04-25 13:52:00,78.7,21.8,29.83,South,182,1.0,15.0,12,0.00,,,0.00,WUHU216DAVISVP2,2013-04-25 20:52:00,
2013-04-25 13:57:00,78.8,19.8,29.83,ESE,112,4.0,15.0,11,0.00,,,0.00,WUHU216DAVISVP2,2013-04-25 20:57:00,
2013-04-25 14:02:00,79.3,20.2,29.83,SSE,160,5.0,12.0,11,0.00,,,0.00,WUHU216DAVISVP2,2013-04-25 21:02:00,
2013-04-25 14:07:00,79.8,24.4,29.83,SE,144,6.0,12.0,13,0.00,,,0.00,WUHU216DAVISVP2,2013-04-25 21:07:00,
2013-04-25 14:12:00,80.1,22.7,29.83,SSE,167,2.0,12.0,12,0.00,,,0.00,WUHU216DAVISVP2,2013-04-25 21:12:00,
2013-04-25 14:17:00,80.5,20.9,29.82,SSE,148,20.0,20.0,11,0.00,,,0.00,WUHU216DAVISVP2,2013-04-25 21:17:00,
2013-04-25 14:22:00,80.5,20.9,29.82,ESE,108,9.0,20.0,11,0.00,,,0.00,WUHU216DAVISVP2,2013-04-25 21:22:00,
2013-04-25 14:27:00,80.6,21.0,29.82,East,90,7.0,20.0,11,0.00,,,0.00,WUHU216DAVISVP2,2013-04-25 21:27:00,
2013-04-25 14:33:00,80.8,21.1,29.82,South,179,11.0,20.0,11,0.00,,,0.00,WUHU216DAVISVP2,2013-04-25 21:33:00,
2013-04-25 14:38:00,80.7,21.1,29.82,South,191,13.0,17.0,11,0.00,,,0.00,WUHU216DAVISVP2,2013-04-25 21:38:00,
2013-04-25 14:43:00,80.5,20.9,29.82,SSE,148,9.0,19.0,11,0.00,,,0.00,WUHU216DAVISVP2,2013-04-25 21:43:00,
2013-04-25 14:48:00,80.5,18.6,29.81,SE,142,7.0,19.0,10,0.00,,,0.00,WUHU216DAVISVP2,2013-04-25 21:48:00,
2013-04-25 14:53:00,80.9,25.3,29.82,WSW,242,12.0,19.0,13,0.00,,,0.00,WUHU216DAVISVP2,2013-04-25 21:53:00,
2013-04-25 14:58:00,80.9,23.3,29.82,SW,214,7.0,21.0,12,0.00,,,0.00,WUHU216DAVISVP2,2013-04-25 21:58:00,
2013-04-25 15:03:00,80.9,28.8,29.82,SSW,205,7.0,21.0,15,0.00,,,0.00,WUHU216DAVISVP2,2013-04-25 22:03:00,
2013-04-25 15:08:00,80.3,30.0,29.81,SSW,205,8.0,21.0,16,0.00,,,0.00,WUHU216DAVISVP2,2013-04-25 22:08:00,
2013-04-25 15:13:00,80.2,31.4,29.81,SW,234,8.0,21.0,17,0.00,,,0.00,WUHU216DAVISVP2,2013-04-25 22:13:00,
2013-04-25 15:18:00,79.5,30.8,29.81,South,185,10.0,21.0,17,0.00,,,0.00,WUHU216DAVISVP2,2013-04-25 22:18:00,
2013-04-25 15:23:00,79.6,29.4,29.81,WSW,238,11.0,20.0,16,0.00,,,0.00,WUHU216DAVISVP2,2013-04-25 22:23:00,
2013-04-25 15:28:00,79.2,33.4,29.81,SW,216,11.0,19.0,19,0.00,,,0.00,WUHU216DAVISVP2,2013-04-25 22:28:00,
2013-04-25 15:33:00,78.4,31.4,29.81,SW,219,13.0,21.0,18,0.00,,,0.00,WUHU216DAVISVP2,2013-04-25 22:33:00,
2013-04-25 15:38:00,78.3,33.9,29.81,SW,223,17.0,21.0,20,0.00,,,0.00,WUHU216DAVISVP2,2013-04-25 22:38:00,
2013-04-25 15:43:00,77.6,34.5,29.81,WSW,244,15.0,21.0,21,0.00,,,0.00,WUHU216DAVISVP2,2013-04-25 22:43:00,
2013-04-25 15:48:00,77.5,36.7,29.81,SW,232,14.0,21.0,23,0.00,,,0.00,WUHU216DAVISVP2,2013-04-25 22:48:00,
2013-04-25 15:53:00,77.6,36.8,29.81,SW,217,12.0,21.0,23,0.00,,,0.00,WUHU216DAVISVP2,2013-04-25 22:53:00,
2013-04-25 15:58:00,77.5,37.8,29.81,SW,228,22.0,22.0,24,0.00,,,0.00,WUHU216DAVISVP2,2013-04-25 22:58:00,
2013-04-25 16:03:00,76.9,39.3,29.81,SW,217,18.0,22.0,26,0.00,,,0.00,WUHU216DAVISVP2,2013-04-25 23:03:00,
2013-04-25 16:08:00,77.1,39.6,29.80,SW,236,18.0,23.0,26,0.00,,,0.00,WUHU216DAVISVP2,2013-04-25 23:08:00,
2013-04-25 16:14:00,77.2,39.6,29.80,WSW,238,17.0,23.0,26,0.00,,,0.00,WUHU216DAVISVP2,2013-04-25 23:14:00,
2013-04-25 16:19:00,77.8,40.2,29.80,SW,219,17.0,23.0,26,0.00,,,0.00,WUHU216DAVISVP2,2013-04-25 23:19:00,
2013-04-25 16:24:00,77.9,39.1,29.80,SSW,204,13.0,23.0,25,0.00,,,0.00,WUHU216DAVISVP2,2013-04-25 23:24:00,
2013-04-25 16:29:00,77.1,39.4,29.80,South,178,12.0,23.0,26,0.00,,,0.00,WUHU216DAVISVP2,2013-04-25 23:29:00,
2013-04-25 16:34:00,77.1,39.4,29.80,South,172,13.0,21.0,26,0.00,,,0.00,WUHU216DAVISVP2,2013-04-25 23:34:00,
2013-04-25 16:39:00,77.0,38.4,29.80,SSW,195,16.0,26.0,25,0.00,,,0.00,WUHU216DAVISVP2,2013-04-25 23:39:00,
2013-04-25 16:44:00,77.2,38.5,29.80,South,190,14.0,26.0,25,0.00,,,0.00,WUHU216DAVISVP2,2013-04-25 23:44:00,
2013-04-25 16:49:00,78.3,37.4,29.79,SSW,209,14.0,25.0,23,0.00,,,0.00,WUHU216DAVISVP2,2013-04-25 23:49:00,
2013-04-25 16:54:00,79.0,35.7,29.79,WSW,255,19.0,25.0,21,0.00,,,0.00,WUHU216DAVISVP2,2013-04-25 23:54:00,
2013-04-25 16:59:00,79.9,31.2,29.80,West,265,15.0,24.0,17,0.00,,,0.00,WUHU216DAVISVP2,2013-04-25 23:59:00,
2013-04-25 17:04:00,80.7,33.2,29.80,NW,309,17.0,24.0,18,0.00,,,0.00,WUHU216DAVISVP2,2013-04-26 00:04:00,
2013-04-25 17:09:00,79.7,22.4,29.80,WSW,240,12.0,25.0,12,0.00,,,0.00,WUHU216DAVISVP2,2013-04-26 00:09:00,
2013-04-25 17:14:00,79.7,33.8,29.80,WSW,247,7.0,25.0,19,0.00,,,0.00,WUHU216DAVISVP2,2013-04-26 00:14:00,
2013-04-25 17:19:00,79.1,34.6,29.80,WSW,243,23.0,25.0,20,0.00,,,0.00,WUHU216DAVISVP2,2013-04-26 00:19:00,
2013-04-25 17:24:00,78.7,31.6,29.80,WSW,253,10.0,25.0,18,0.00,,,0.00,WUHU216DAVISVP2,2013-04-26 00:24:00,
2013-04-25 17:29:00,78.6,31.5,29.81,SW,217,21.0,25.0,18,0.00,,,0.00,WUHU216DAVISVP2,2013-04-26 00:29:00,
2013-04-25 17:34:00,78.3,29.9,29.81,WSW,239,20.0,29.0,17,0.00,,,0.00,WUHU216DAVISVP2,2013-04-26 00:34:00,
2013-04-25 17:39:00,78.0,32.4,29.81,WSW,252,16.0,29.0,19,0.00,,,0.00,WUHU216DAVISVP2,2013-04-26 00:39:00,
2013-04-25 17:44:00,77.8,33.5,29.81,WSW,248,11.0,29.0,20,0.00,,,0.00,WUHU216DAVISVP2,2013-04-26 00:44:00,
2013-04-25 17:49:00,77.3,34.3,29.81,West,267,15.0,29.0,21,0.00,,,0.00,WUHU216DAVISVP2,2013-04-26 00:49:00,
2013-04-25 17:54:00,77.2,33.0,29.82,West,267,13.0,28.0,20,0.00,,,0.00,WUHU216DAVISVP2,2013-04-26 00:54:00,
2013-04-25 17:59:00,76.6,34.8,29.82,WSW,250,20.0,26.0,22,0.00,,,0.00,WUHU216DAVISVP2,2013-04-26 00:59:00,
2013-04-25 18:05:00,75.5,38.1,29.82,SW,227,14.0,26.0,26,0.00,,,0.00,WUHU216DAVISVP2,2013-04-26 01:05:00,
2013-04-25 18:10:00,74.0,38.7,29.82,SW,228,21.0,29.0,28,0.00,,,0.00,WUHU216DAVISVP2,2013-04-26 01:10:00,
2013-04-25 18:15:00,73.3,39.8,29.82,SSW,205,12.0,29.0,30,0.00,,,0.00,WUHU216DAVISVP2,2013-04-26 01:15:00,
2013-04-25 18:20:00,73.1,39.6,29.83,SW,229,16.0,29.0,30,0.00,,,0.00,WUHU216DAVISVP2,2013-04-26 01:20:00,
2013-04-25 18:25:00,72.6,40.0,29.83,SW,214,18.0,29.0,31,0.00,,,0.00,WUHU216DAVISVP2,2013-04-26 01:25:00,
2013-04-25 18:30:00,72.0,40.3,29.83,WSW,238,11.0,27.0,32,0.00,,,0.00,WUHU216DAVISVP2,2013-04-26 01:30:00,
2013-04-25 18:35:00,71.2,40.4,29.83,SSW,213,24.0,27.0,33,0.00,,,0.00,WUHU216DAVISVP2,2013-04-26 01:35:00,
2013-04-25 18:40:00,70.8,40.9,29.83,SSW,212,21.0,31.0,34,0.00,,,0.00,WUHU216DAVISVP2,2013-04-26 01:40:00,
2013-04-25 18:45:00,70.5,40.6,29.84,SW,221,22.0,31.0,34,0.00,,,0.00,WUHU216DAVISVP2,2013-04-26 01:45:00,
2013-04-25 18:50:00,70.2,41.1,29.83,SW,227,18.0,31.0,35,0.00,,,0.00,WUHU216DAVISVP2,2013-04-26 01:50:00,
2013-04-25 18:55:00,69.9,40.8,29.83,SW,231,22.0,29.0,35,0.00,,,0.00,WUHU216DAVISVP2,2013-04-26 01:55:00,
2013-04-25 19:00:00,69.5,41.2,29.83,SSW,213,12.0,28.0,36,0.00,,,0.00,WUHU216DAVISVP2,2013-04-26 02:00:00,
2013-04-25 19:05:00,69.4,41.1,29.83,SW,231,16.0,28.0,36,0.00,,,0.00,WUHU216DAVISVP2,2013-04-26 02:05:00,
2013-04-25 19:10:00,69.2,40.9,29.83,SSW,209,18.0,26.0,36,0.00,,,0.00,WUHU216DAVISVP2,2013-04-26 02:10:00,
2013-04-25 19:15:00,68.8,40.6,29.83,SSW,210,21.0,26.0,36,0.00,,,0.00,WUHU216DAVISVP2,2013-04-26 02:15:00,
2013-04-25 19:20:00,68.5,41.0,29.83,SW,215,16.0,28.0,37,0.00,,,0.00,WUHU216DAVISVP2,2013-04-26 02:20:00,
2013-04-25 19:25:00,68.5,40.5,29.83,SW,216,17.0,28.0,36,0.00,,,0.00,WUHU216DAVISVP2,2013-04-26 02:25:00,
2013-04-25 19:30:00,68.1,40.8,29.83,SW,223,14.0,28.0,37,0.00,,,0.00,WUHU216DAVISVP2,2013-04-26 02:30:00,
2013-04-25 19:35:00,68.2,40.9,29.84,SW,236,14.0,26.0,37,0.00,,,0.00,WUHU216DAVISVP2,2013-04-26 02:35:00,
2013-04-25 19:40:00,68.1,40.1,29.84,SW,221,12.0,23.0,36,0.00,,,0.00,WUHU216DAVISVP2,2013-04-26 02:40:00,
2013-04-25 19:45:00,68.2,40.0,29.84,SW,215,19.0,26.0,36,0.00,,,0.00,WUHU216DAVISVP2,2013-04-26 02:45:00,
2013-04-25 19:51:00,68.0,39.9,29.84,WSW,241,17.0,26.0,36,0.00,,,0.00,WUHU216DAVISVP2,2013-04-26 02:51:00,
2013-04-25 19:56:00,67.8,39.7,29.84,SW,225,18.0,26.0,36,0.00,,,0.00,WUHU216DAVISVP2,2013-04-26 02:56:00,
2013-04-25 20:01:00,67.6,39.5,29.85,West,263,9.0,27.0,36,0.00,,,0.00,WUHU216DAVISVP2,2013-04-26 03:01:00,
2013-04-25 20:06:00,67.7,38.9,29.85,SSW,211,16.0,27.0,35,0.00,,,0.00,WUHU216DAVISVP2,2013-04-26 03:06:00,
2013-04-25 20:11:00,67.5,38.7,29.85,SW,233,15.0,27.0,35,0.00,,,0.00,WUHU216DAVISVP2,2013-04-26 03:11:00,
2013-04-25 20:16:00,67.5,37.9,29.86,WSW,243,12.0,24.0,34,0.00,,,0.00,WUHU216DAVISVP2,2013-04-26 03:16:00,
2013-04-25 20:21:00,67.3,39.2,29.85,SW,221,13.0,24.0,36,0.00,,,0.00,WUHU216DAVISVP2,2013-04-26 03:21:00,
2013-04-25 20:26:00,67.3,34.6,29.86,WSW,244,11.0,24.0,30,0.00,,,0.00,WUHU216DAVISVP2,2013-04-26 03:26:00,
2013-04-25 20:31:00,67.9,34.4,29.86,South,173,5.0,24.0,29,0.00,,,0.00,WUHU216DAVISVP2,2013-04-26 03:31:00,
2013-04-25 20:36:00,68.3,34.8,29.86,WSW,249,11.0,24.0,29,0.00,,,0.00,WUHU216DAVISVP2,2013-04-26 03:36:00,
2013-04-25 20:41:00,67.8,33.5,29.86,SW,234,15.0,24.0,28,0.00,,,0.00,WUHU216DAVISVP2,2013-04-26 03:41:00,
2013-04-25 20:46:00,68.5,31.1,29.86,WSW,240,10.0,24.0,25,0.00,,,0.00,WUHU216DAVISVP2,2013-04-26 03:46:00,
2013-04-25 20:51:00,68.4,32.0,29.87,WSW,238,11.0,24.0,26,0.00,,,0.00,WUHU216DAVISVP2,2013-04-26 03:51:00,
2013-04-25 20:56:00,68.6,33.1,29.87,SSW,193,17.0,24.0,27,0.00,,,0.00,WUHU216DAVISVP2,2013-04-26 03:56:00,
2013-04-25 21:01:00,68.5,32.1,29.87,WSW,253,20.0,24.0,26,0.00,,,0.00,WUHU216DAVISVP2,2013-04-26 04:01:00,
2013-04-25 21:06:00,68.7,31.3,29.87,WSW,247,16.0,28.0,25,0.00,,,0.00,WUHU216DAVISVP2,2013-04-26 04:06:00,
2013-04-25 21:11:00,68.7,31.3,29.87,WSW,244,14.0,28.0,25,0.00,,,0.00,WUHU216DAVISVP2,2013-04-26 04:11:00,
2013-04-25 21:16:00,68.8,30.4,29.87,WSW,242,21.0,35.0,24,0.00,,,0.00,WUHU216DAVISVP2,2013-04-26 04:16:00,
2013-04-25 21:21:00,68.6,31.2,29.88,WSW,237,20.0,35.0,25,0.00,,,0.00,WUHU216DAVISVP2,2013-04-26 04:21:00,
2013-04-25 21:26:00,69.2,28.6,29.88,WSW,247,20.0,35.0,22,0.00,,,0.00,WUHU216DAVISVP2,2013-04-26 04:26:00,
2013-04-25 21:31:00,68.4,31.1,29.88,WSW,252,17.0,35.0,25,0.00,,,0.00,WUHU216DAVISVP2,2013-04-26 04:31:00,
2013-04-25 21:36:00,68.4,32.0,29.88,SW,225,21.0,34.0,26,0.00,,,0.00,WUHU216DAVISVP2,2013-04-26 04:36:00,
2013-04-25 21:41:00,68.1,30.8,29.88,SW,219,15.0,34.0,25,0.00,,,0.00,WUHU216DAVISVP2,2013-04-26 04:41:00,
2013-04-25 21:47:00,68.3,31.0,29.88,SW,236,19.0,32.0,25,0.00,,,0.00,WUHU216DAVISVP2,2013-04-26 04:47:00,
2013-04-25 21:52:00,68.6,29.2,29.88,West,261,14.0,27.0,23,0.00,,,0.00,WUHU216DAVISVP2,2013-04-26 04:52:00,
2013-04-25 21:57:00,68.0,31.7,29.89,WSW,237,16.0,28.0,26,0.00,,,0.00,WUHU216DAVISVP2,2013-04-26 04:57:00,
2013-04-25 22:02:00,68.1,29.8,29.89,WSW,241,13.0,28.0,24,0.00,,,0.00,WUHU216DAVISVP2,2013-04-26 05:02:00,
2013-04-25 22:07:00,68.7,30.3,29.89,SW,235,23.0,28.0,24,0.00,,,0.00,WUHU216DAVISVP2,2013-04-26 05:07:00,
2013-04-25 22:12:00,67.6,33.2,29.89,WSW,238,18.0,28.0,28,0.00,,,0.00,WUHU216DAVISVP2,2013-04-26 05:12:00,
2013-04-25 22:17:00,68.2,29.9,29.89,SW,230,26.0,28.0,24,0.00,,,0.00,WUHU216DAVISVP2,2013-04-26 05:17:00,
2013-04-25 22:22:00,68.1,31.8,29.89,WSW,248,15.0,31.0,26,0.00,,,0.00,WUHU216DAVISVP2,2013-04-26 05:22:00,
2013-04-25 22:27:00,67.4,32.1,29.89,WSW,249,12.0,31.0,27,0.00,,,0.00,WUHU216DAVISVP2,2013-04-26 05:27:00,
2013-04-25 22:32:00,67.3,32.9,29.89,WSW,250,22.0,36.0,28,0.00,,,0.00,WUHU216DAVISVP2,2013-04-26 05:32:00,
2013-04-25 22:37:00,67.1,33.6,29.89,SW,234,21.0,36.0,29,0.00,,,0.00,WUHU216DAVISVP2,2013-04-26 05:37:00,
2013-04-25 22:42:00,67.0,33.5,29.89,WSW,242,23.0,36.0,29,0.00,,,0.00,WUHU216DAVISVP2,2013-04-26 05:42:00,
2013-04-25 22:47:00,67.4,32.1,29.89,SW,225,19.0,36.0,27,0.00,,,0.00,WUHU216DAVISVP2,2013-04-26 05:47:00,
2013-04-25 22:52:00,67.5,31.2,29.89,WSW,240,27.0,36.0,26,0.00,,,0.00,WUHU216DAVISVP2,2013-04-26 05:52:00,
2013-04-25 22:57:00,67.5,32.2,29.89,SW,233,11.0,36.0,27,0.00,,,0.00,WUHU216DAVISVP2,2013-04-26 05:57:00,
2013-04-25 23:02:00,67.3,32.0,29.89,SW,228,22.0,36.0,27,0.00,,,0.00,WUHU216DAVISVP2,2013-04-26 06:02:00,
2013-04-25 23:07:00,67.5,31.2,29.89,WSW,248,12.0,36.0,26,0.00,,,0.00,WUHU216DAVISVP2,2013-04-26 06:07:00,
2013-04-25 23:12:00,67.4,31.2,29.90,West,262,12.0,33.0,26,0.00,,,0.00,WUHU216DAVISVP2,2013-04-26 06:12:00,
2013-04-25 23:17:00,67.6,31.3,29.90,SW,230,14.0,29.0,26,0.00,,,0.00,WUHU216DAVISVP2,2013-04-26 06:17:00,
2013-04-25 23:22:00,67.9,30.6,29.90,West,268,11.0,24.0,25,0.00,,,0.00,WUHU216DAVISVP2,2013-04-26 06:22:00,
2013-04-25 23:27:00,67.7,31.4,29.90,West,278,17.0,24.0,26,0.00,,,0.00,WUHU216DAVISVP2,2013-04-26 06:27:00,
2013-04-25 23:33:00,67.3,32.0,29.90,SW,225,17.0,24.0,27,0.00,,,0.00,WUHU216DAVISVP2,2013-04-26 06:33:00,
2013-04-25 23:38:00,67.3,31.1,29.90,West,275,14.0,23.0,26,0.00,,,0.00,WUHU216DAVISVP2,2013-04-26 06:38:00,
2013-04-25 23:43:00,67.2,31.9,29.91,WSW,240,13.0,26.0,27,0.00,,,0.00,WUHU216DAVISVP2,2013-04-26 06:43:00,
2013-04-25 23:48:00,67.5,31.2,29.91,SW,230,14.0,26.0,26,0.00,,,0.00,WUHU216DAVISVP2,2013-04-26 06:48:00,
2013-04-25 23:53:00,66.8,34.2,29.91,SW,230,18.0,26.0,30,0.00,,,0.00,WUHU216DAVISVP2,2013-04-26 06:53:00,
2013-04-25 23:58:00,66.2,33.8,29.91,WSW,241,23.0,26.0,30,0.00,,,0.00,WUHU216DAVISVP2,2013-04-26 06:58:00,